Copper Harbor, MI

9:17 AM EDT on June 27, 2017 (GMT -0400)
Copper Harbor

Weather History for KP59 - June, 2014

Change the Weather History Date:

Tuesday, June 17, 2014

  Actual Average Record
Temperature  
Mean Temperature 58 °F -  
Max Temperature 70 °F 64 °F 84 °F (2006)
Min Temperature 48 °F 46 °F 42 °F (2013)
Degree Days  
Heating Degree Days 6    
Growing Degree Days 8 (Base 50)    
Moisture  
Dew Point 51 °F    
Average Humidity 72    
Maximum Humidity 86    
Minimum Humidity 61    
Precipitation  
Precipitation 0.02 in - - ()
Sea Level Pressure  
Sea Level Pressure 29.81 in    
Wind  
Wind Speed 5 mph (NW)    
Max Wind Speed 14 mph    
Max Gust Speed -    
Averages and records for this station are not official NWS values.
T = Trace of Precipitation, MM = Missing Value Source: NWS Daily Summary

Daily Weather History Graph

Daily Weather History Graph

Search for Another Location

Airport or City:

Trip Planner

Search our weather history database for the weather conditions in past years. The results will help you decide how hot, cold, wet, or windy it might be!

Date:

Astronomy

Jun. 17, 2014 Rise Set
Actual Time 5:53 AM EDT 9:51 PM EDT
Civil Twilight 5:13 AM EDT 10:31 PM EDT
Nautical Twilight 4:17 AM EDT 11:27 PM EDT
Astronomical Twilight 2:49 AM EDT 12:55 AM EDT
Moon 12:24 AM EDT (6/17) 11:27 AM EDT (6/17)
Length of Visible Light 17h 18m
Length of Day
15h 57m
Waning Gibbous, 73% of the Moon is Illuminated
Jun 17
Waning Gibbous
Jun 19
Last Quarter
Jun 27
New
Jul 5
First Quarter
Jul 12
Full

Hourly Weather History & Observations

Time (EDT) Temp. Dew Point Humidity Pressure Visibility Wind Dir Wind Speed Gust Speed Precip Events Conditions
12:51 AM 64.9 °F 52.0 °F 63% 29.77 in - WSW 8.1 mph - N/A   Unknown
1:51 AM 66.0 °F 53.1 °F 63% 29.74 in - WSW 5.8 mph - N/A   Unknown
2:51 AM 66.9 °F 53.1 °F 61% 29.73 in - West 6.9 mph - N/A   Unknown
3:51 AM 66.0 °F 53.1 °F 63% 29.73 in - WSW 8.1 mph - N/A   Unknown
4:51 AM 66.9 °F 54.0 °F 63% 29.73 in - WSW 4.6 mph - N/A   Unknown
5:51 AM 54.0 °F 46.9 °F 77% 29.79 in - SE 4.6 mph - N/A   Unknown
6:51 AM 57.9 °F 53.1 °F 84% 29.77 in - Calm Calm - 0.02 in   Unknown
7:51 AM 64.9 °F 57.9 °F 78% 29.73 in - WSW 5.8 mph - N/A   Unknown
8:51 AM 68.0 °F 60.1 °F 76% 29.70 in - WSW 8.1 mph - N/A   Unknown
9:51 AM 61.0 °F 54.0 °F 78% 29.73 in - NNE 3.5 mph - N/A   Unknown
10:51 AM 64.0 °F 54.0 °F 70% 29.73 in - Calm Calm - N/A   Unknown
11:51 AM 48.9 °F 44.1 °F 83% 29.77 in - North 13.8 mph - N/A   Unknown
12:51 PM 51.1 °F 46.0 °F 83% 29.80 in - North 5.8 mph - N/A   Unknown
1:51 PM 53.1 °F 46.9 °F 80% 29.81 in - North 4.6 mph - N/A   Unknown
2:51 PM 57.0 °F 48.0 °F 72% 29.82 in - North 4.6 mph - N/A   Unknown
3:51 PM 60.1 °F 48.9 °F 67% 29.84 in - North 4.6 mph - N/A   Unknown
4:51 PM 62.1 °F 51.1 °F 67% 29.85 in - North 5.8 mph - N/A   Unknown
5:51 PM 68.0 °F 55.0 °F 63% 29.87 in - Calm Calm - N/A   Unknown
6:51 PM 69.1 °F 55.0 °F 61% 29.87 in - Calm Calm - N/A   Unknown
7:51 PM 66.0 °F 53.1 °F 63% 29.88 in - Calm Calm - N/A   Unknown
8:51 PM 52.0 °F 46.9 °F 83% 29.92 in - North 4.6 mph - N/A   Unknown
9:51 PM 51.1 °F 46.0 °F 83% 29.95 in - Calm Calm - N/A   Unknown
10:51 PM 55.0 °F 51.1 °F 86% 29.97 in - Calm Calm - N/A   Unknown
11:51 PM 60.1 °F 50.0 °F 69% 29.98 in - Calm Calm - N/A   Unknown